Location: Grand Mazuras
(45.9128°N, 1.7636°E)
Time: 19:48:37
(UTC+00:00)

ISS - Visible Passes

Search period start: 21 September 2021 00:00
Search period end: 01 October 2021 00:00
Orbit: 419 x 423 km, 51.6° (Epoch: 21 September)

Date Brightness Start Highest point End Pass type
(mag) Time Alt. Az. Time Alt. Az. Time Alt. Az.
21 Sep -2.4 19:43:53 10° W 19:47:02 36° NNW 19:47:52 30° NNE visible
22 Sep -2.7 18:56:48 10° W 19:00:02 43° NNW 19:02:48 13° NE visible
22 Sep -1.1 20:34:23 10° WNW 20:35:48 20° NW 20:35:48 20° NW visible
23 Sep -2.3 19:47:20 10° WNW 19:50:21 29° N 19:50:41 29° N visible
24 Sep -2.3 19:00:15 10° WNW 19:03:19 31° N 19:05:32 16° NE visible
24 Sep -0.8 20:37:32 10° NW 20:38:31 17° NW 20:38:31 17° NW visible
25 Sep -2.4 18:13:08 10° W 18:16:16 35° NNW 18:19:25 10° NE visible
25 Sep -2.3 19:50:36 10° WNW 19:53:21 31° N 19:53:21 31° N visible
26 Sep -2.3 19:03:35 10° WNW 19:06:37 30° N 19:08:10 20° NE visible
26 Sep -0.5 20:40:32 10° WNW 20:41:09 14° NW 20:41:09 14° NW visible
27 Sep -2.3 18:16:32 10° WNW 18:19:33 29° N 18:22:35 10° ENE visible
27 Sep -2.3 19:53:38 10° WNW 19:55:58 35° NNW 19:55:58 35° NNW visible
28 Sep -2.8 19:06:42 10° NW 19:09:53 37° NNE 19:10:48 30° NE visible
28 Sep -0.3 20:43:32 10° WNW 20:43:48 12° WNW 20:43:48 12° WNW visible
29 Sep -2.5 18:19:45 10° WNW 18:22:50 32° N 18:25:39 12° ENE visible
29 Sep -2.1 19:56:36 10° WNW 19:58:39 34° WNW 19:58:39 34° WNW visible
30 Sep -3.6 19:09:40 10° WNW 19:13:02 62° NNE 19:13:32 53° ENE visible
